This is the latest recevied weather packets stored in our database for station/object G4KVI. If no packets are shown the sender has not sent any weather packets the latest 10 day(s).
| Time | Temp. | Humidity | Pressure | Rain* | Wind** | Luminosity | Snow |
|---|---|---|---|---|---|---|---|
| 1777834806 | 13.89° C | 80% | 1011.7 hPa | 0 mm | - | 16 W/m² | - |
| 1777834506 | 13.89° C | 79% | 1011.8 hPa | 0 mm | - | 19 W/m² | - |
| 1777834206 | 13.89° C | 79% | 1011.7 hPa | 0 mm | - | 22 W/m² | - |
| 1777833906 | 14.44° C | 79% | 1011.6 hPa | 0 mm | - | 26 W/m² | - |
| 1777833606 | 14.44° C | 78% | 1011.7 hPa | 0 mm | - | 31 W/m² | - |
| 1777833306 | 14.44° C | 78% | 1011.6 hPa | 0 mm | - | 33 W/m² | - |
| 1777833006 | 14.44° C | 77% | 1011.4 hPa | 0 mm | - | 32 W/m² | - |
| 1777832706 | 15° C | 76% | 1011.7 hPa | 0 mm | - | 32 W/m² | - |
| 1777832406 | 15° C | 75% | 1011.5 hPa | 0 mm | - | 34 W/m² | - |
| 1777832106 | 15° C | 74% | 1011.4 hPa | 0 mm | - | 32 W/m² | - |
| 1777831806 | 15.56° C | 73% | 1011.4 hPa | 0 mm | - | 36 W/m² | - |
| 1777831506 | 15.56° C | 73% | 1011.4 hPa | 0 mm | - | 46 W/m² | - |
| 1777831206 | 15.56° C | 72% | 1011.3 hPa | 0 mm | - | 62 W/m² | - |
| 1777830906 | 16.11° C | 71% | 1011.3 hPa | 0 mm | - | 77 W/m² | - |
| 1777830606 | 16.67° C | 70% | 1011.3 hPa | 0 mm | - | 73 W/m² | - |
| 1777830306 | 16.67° C | 71% | 1011.2 hPa | 0 mm | - | 140 W/m² | - |
| 1777830006 | 16.11° C | 71% | 1011.3 hPa | 0 mm | - | 143 W/m² | - |
| 1777829706 | 16.11° C | 71% | 1010.8 hPa | 0 mm | - | 110 W/m² | - |
| 1777829406 | 16.11° C | 71% | 1011.1 hPa | 0 mm | - | 119 W/m² | - |
| 1777829106 | 16.67° C | 72% | 1011 hPa | 0 mm | - | 133 W/m² | - |
| 1777828806 | 16.67° C | 72% | 1011.1 hPa | 0 mm | - | 146 W/m² | - |
| 1777828506 | 16.67° C | 72% | 1011 hPa | 0 mm | - | 152 W/m² | - |
| 1777828206 | 16.67° C | 72% | 1011.1 hPa | 0 mm | - | 150 W/m² | - |
| 1777827906 | 16.67° C | 72% | 1011.2 hPa | 0 mm | - | 139 W/m² | - |
| 1777827606 | 16.67° C | 71% | 1011.1 hPa | 0 mm | - | 94 W/m² | - |
* Rain latest hour (hover to see other rain measurements)
** Current wind speed in m/s (hover to see current wind gust speed)